Location: ????????
(54.8751°N, 38.5756°E)
Time: 04:06:16
(UTC+00:00)

Cosmos 1980 - Pass Details

Date: 14 April 2024
Orbit: 840 x 845 km, 71.0° (Epoch: 23 May)

Event Time Altitude Azimuth Distance (km) Brightness Sun altitude
Exits shadow 01:30:56 - 218° (SW) 2,696 5.7 -7.9°
Reaches altitude 10° 01:31:34 10° 219° (SW) 2,458 5.5 -7.8°
Maximum altitude 01:37:13 76° 305° (NW) 871 3.8 -7.1°
Drops below altitude 10° 01:42:54 10° 32° (NNE) 2,470 7.2 -6.4°
Sets 01:45:22 0° 34° (NE) 3,408 8.0 -6.1°
